Simultaneous Nadir Overpasses (SNOs) Predictions

Prediction of SNOs between NOAA-20 and NOAA-19 Satellite Orbit:

Table of predicted SNOs for the next 14.0 days since TLE Epoch: 6/4/2022
Index Date (NOAA-20) Time (NOAA-20) Lat,Lon (NOAA-20) SZA (NOAA-20 ) Date (NOAA-19) Time (NOAA-19) Lat,Lon (NOAA-19) SZA (NOAA-19 ) Distance(km) Time Diff (sec)
1 06/05/2022 03:37:28 -76.58, -72.76 125.29 06/05/2022 03:36:20 -76.60, -75.34 125.02 66.68 68
2 06/05/2022 04:28:21 76.90, 93.30 55.11 06/05/2022 04:27:16 76.93, 93.30 55.17 3.42 65
3 06/05/2022 05:19:06 -76.94, -99.53 124.85 06/05/2022 05:18:12 -76.94, -99.41 124.84 3.19 54
4 06/05/2022 06:09:52 76.95, 67.72 55.17 06/05/2022 06:09:16 76.93, 67.79 55.16 3.00 36
5 06/05/2022 07:00:36 -76.94,-124.93 124.85 06/05/2022 07:00:12 -76.93,-124.92 124.85 1.08 24
6 06/05/2022 07:51:22 76.96, 42.32 55.17 06/05/2022 07:51:15 76.97, 42.46 55.17 3.65 7
7 06/05/2022 08:42:06 -76.95,-150.33 124.85 06/05/2022 08:42:11 -76.97,-150.25 124.84 3.21 5
8 06/05/2022 09:32:52 76.96, 16.93 55.17 06/05/2022 09:33:15 76.96, 16.95 55.16 0.58 23
9 06/05/2022 10:23:36 -76.96,-175.72 124.85 06/05/2022 10:24:11 -76.97,-175.76 124.85 1.82 35
10 06/05/2022 11:14:22 76.97, -8.47 55.17 06/05/2022 11:15:15 76.96, -8.56 55.15 2.49 53
11 06/05/2022 12:05:06 -76.96, 158.88 124.85 06/05/2022 12:06:11 -76.96, 158.72 124.86 3.98 65
12 06/05/2022 12:56:00 77.32, -35.34 55.61 06/05/2022 12:57:07 77.29, -32.55 55.33 68.20 67



Historial Predications of SNOs between NOAA-20 and NOAA-19
